Weather History for K0A9 - March, 2013

Change the Weather History Date:

Saturday, March 30, 2013

  Actual Average (KTRI) Record (KTRI)
Temperature  
Mean Temperature 47 °F 50 °F  
Max Temperature 59 °F 63 °F 82 °F (1985)
Min Temperature 35 °F 38 °F 15 °F (1964)
Degree Days  
Heating Degree Days 18 15  
Month to date heating degree days 554  
Since 1 July heating degree days 3936  
Cooling Degree Days 0 0  
Month to date cooling degree days 0  
Year to date cooling degree days 0  
Moisture  
Dew Point 36 °F    
Average Humidity 73    
Maximum Humidity 93    
Minimum Humidity 42    
Precipitation  
Precipitation 0.00 in 0.11 in 2.34 in (1977)
Month to date precipitation 3.33  
Year to date precipitation 10.15  
Snow  
Snow 0.00 in 0.00 in - ()
Month to date snowfall 1.4  
Since 1 July snowfall 12.2  
Snow Depth -    
Sea Level Pressure  
Sea Level Pressure 30.15 in    
Wind  
Wind Speed 3 mph (NE)    
Max Wind Speed 9 mph    
Max Gust Speed -    
Visibility 10 miles    
Events Rain    
T = Trace of Precipitation, MM = Missing Value Source: NWS Daily Summary

Daily Weather History Graph

Daily Weather History Graph

Search for Another Location

Airport or City:

Trip Planner

Search our weather history database for the weather conditions in past years. The results will help you decide how hot, cold, wet, or windy it might be!

Date:

Astronomy

Mar. 30, 2013 Rise Set
Actual Time 7:17 AM EDT 7:49 PM EDT
Civil Twilight 6:51 AM EDT 8:15 PM EDT
Nautical Twilight 6:21 AM EDT 8:45 PM EDT
Astronomical Twilight 5:49 AM EDT 9:16 PM EDT
Moon 11:47 PM EDT (3/30) 9:17 AM EDT (3/30)
Length of Visible Light 13h 23m
Length of Day
12h 31m
Waning Gibbous, 86% of the Moon is Illuminated
Mar 30
Waning Gibbous
Apr 3
Last Quarter
Apr 10
New
Apr 18
First Quarter
Apr 25
Full

Hourly Weather History & Observations

Time (EDT) Temp. Windchill Dew Point Humidity Pressure Visibility Wind Dir Wind Speed Gust Speed Precip Events Conditions
12:15 AM 37.4 °F 34.9 °F 35.6 °F 93% 30.24 in 10.0 mi East 3.5 mph - N/A   Overcast
12:35 AM 37.4 °F 34.9 °F 35.6 °F 93% 30.23 in 10.0 mi ENE 3.5 mph - N/A   Overcast
12:55 AM 37.4 °F 32.8 °F 35.6 °F 93% 30.23 in 10.0 mi East 5.8 mph - N/A   Overcast
1:15 AM 37.4 °F 34.9 °F 35.6 °F 93% 30.23 in 10.0 mi ENE 3.5 mph - N/A   Overcast
1:35 AM 37.4 °F 33.8 °F 35.6 °F 93% 30.22 in 10.0 mi East 4.6 mph - N/A   Overcast
1:55 AM 37.4 °F 33.8 °F 35.6 °F 93% 30.23 in 10.0 mi East 4.6 mph - N/A   Overcast
2:15 AM 37.4 °F 33.8 °F 35.6 °F 93% 30.23 in 10.0 mi NNE 4.6 mph - N/A   Overcast
2:35 AM 37.4 °F 33.8 °F 35.6 °F 93% 30.22 in 10.0 mi ENE 4.6 mph - N/A   Overcast
2:55 AM 37.4 °F 33.8 °F 33.8 °F 87% 30.22 in 10.0 mi East 4.6 mph - N/A   Overcast
3:15 AM 35.6 °F 32.8 °F 33.8 °F 93% 30.21 in 10.0 mi NNE 3.5 mph - N/A   Overcast
3:35 AM 35.6 °F 32.8 °F 33.8 °F 93% 30.21 in 10.0 mi NE 3.5 mph - N/A   Overcast
3:55 AM 35.6 °F 32.8 °F 33.8 °F 93% 30.21 in 10.0 mi North 3.5 mph - N/A   Overcast
4:15 AM 35.6 °F - 33.8 °F 93% 30.20 in 10.0 mi Calm Calm - N/A   Overcast
4:35 AM 35.6 °F 32.8 °F 33.8 °F 93% 30.20 in 10.0 mi ENE 3.5 mph - N/A   Mostly Cloudy
4:55 AM 35.6 °F 32.8 °F 33.8 °F 93% 30.19 in 10.0 mi NE 3.5 mph - N/A   Mostly Cloudy
5:15 AM 35.6 °F 31.7 °F 33.8 °F 93% 30.20 in 10.0 mi ENE 4.6 mph - N/A   Overcast
5:35 AM 35.6 °F 32.8 °F 33.8 °F 93% 30.20 in 10.0 mi NE 3.5 mph - N/A   Overcast
5:55 AM 35.6 °F 32.8 °F 33.8 °F 93% 30.20 in 10.0 mi NE 3.5 mph - N/A   Overcast
6:15 AM 35.6 °F 32.8 °F 33.8 °F 93% 30.20 in 10.0 mi ENE 3.5 mph - N/A   Overcast
6:35 AM 35.6 °F 31.7 °F 33.8 °F 93% 30.20 in 10.0 mi NE 4.6 mph - N/A   Overcast
6:55 AM 35.6 °F 31.7 °F 33.8 °F 93% 30.20 in 10.0 mi NE 4.6 mph - N/A   Overcast
7:15 AM 35.6 °F 32.8 °F 33.8 °F 93% 30.20 in 10.0 mi NE 3.5 mph - N/A   Overcast
7:35 AM 35.6 °F - 33.8 °F 93% 30.21 in 10.0 mi Calm Calm - N/A   Overcast
7:55 AM 35.6 °F - 33.8 °F 93% 30.22 in 10.0 mi Calm Calm - N/A   Overcast
8:15 AM 37.4 °F 33.8 °F 33.8 °F 87% 30.22 in 10.0 mi NE 4.6 mph - N/A   Overcast
8:35 AM 37.4 °F - 33.8 °F 87% 30.22 in 10.0 mi Calm Calm - N/A   Overcast
8:55 AM 37.4 °F 33.8 °F 33.8 °F 87% 30.23 in 10.0 mi NNE 4.6 mph - N/A   Overcast
9:15 AM 37.4 °F - 33.8 °F 87% 30.22 in 10.0 mi Calm Calm - N/A   Overcast
9:35 AM 39.2 °F 37.0 °F 33.8 °F 81% 30.22 in 10.0 mi ENE 3.5 mph - N/A   Overcast
9:55 AM 39.2 °F 37.0 °F 33.8 °F 81% 30.22 in 10.0 mi NE 3.5 mph - N/A   Overcast
10:15 AM 42.8 °F 41.1 °F 35.6 °F 76% 30.21 in 10.0 mi East 3.5 mph - N/A   Overcast
10:35 AM 42.8 °F 41.1 °F 35.6 °F 76% 30.20 in 10.0 mi East 3.5 mph - N/A   Overcast
10:55 AM 46.4 °F 44.3 °F 37.4 °F 71% 30.19 in 10.0 mi ENE 4.6 mph - N/A   Scattered Clouds
11:15 AM 48.2 °F - 37.4 °F 66% 30.19 in 10.0 mi Variable 4.6 mph - N/A   Clear
11:35 AM 48.2 °F - 37.4 °F 66% 30.18 in 10.0 mi ESE 3.5 mph - N/A   Clear
11:55 AM 50.0 °F - 37.4 °F 62% 30.18 in 10.0 mi Variable 3.5 mph - N/A   Clear
12:15 PM 53.6 °F - 39.2 °F 58% 30.18 in 10.0 mi Calm Calm - N/A   Clear
12:35 PM 53.6 °F - 39.2 °F 58% 30.18 in 10.0 mi SSW 4.6 mph - N/A   Light Drizzle
12:55 PM 55.4 °F - 39.2 °F 54% 30.16 in 10.0 mi SW 6.9 mph - N/A   Partly Cloudy
1:15 PM 55.4 °F - 37.4 °F 51% 30.15 in 10.0 mi Calm Calm - N/A Rain Light Rain
1:35 PM 55.4 °F - 37.4 °F 51% 30.14 in 10.0 mi Calm Calm - N/A   Scattered Clouds
1:55 PM 55.4 °F - 37.4 °F 51% 30.14 in 10.0 mi Variable 4.6 mph - N/A Rain Light Rain
2:15 PM 57.2 °F - 37.4 °F 48% 30.13 in 10.0 mi Calm Calm - N/A Rain Light Rain
2:35 PM 55.4 °F - 37.4 °F 51% 30.12 in 10.0 mi Variable 5.8 mph - N/A   Partly Cloudy
2:55 PM 57.2 °F - 37.4 °F 48% 30.12 in 10.0 mi WSW 8.1 mph - N/A   Scattered Clouds
3:15 PM 57.2 °F - 35.6 °F 44% 30.11 in 10.0 mi Variable 4.6 mph - N/A   Clear
3:35 PM 57.2 °F - 37.4 °F 48% 30.11 in 10.0 mi Variable 4.6 mph - N/A   Clear
3:55 PM 57.2 °F - 37.4 °F 48% 30.10 in 10.0 mi Calm Calm - N/A   Clear
4:15 PM 59.0 °F - 35.6 °F 42% 30.09 in 10.0 mi Calm Calm - N/A   Clear
4:35 PM 59.0 °F - 35.6 °F 42% 30.09 in 10.0 mi West 5.8 mph - N/A   Clear
4:55 PM 57.2 °F - 37.4 °F 48% 30.08 in 10.0 mi SSW 4.6 mph - N/A   Clear
5:15 PM 59.0 °F - 37.4 °F 45% 30.08 in 10.0 mi West 6.9 mph - N/A   Clear
5:35 PM 57.2 °F - 37.4 °F 48% 30.08 in 10.0 mi West 4.6 mph - N/A   Clear
5:55 PM 57.2 °F - 37.4 °F 48% 30.07 in 10.0 mi West 9.2 mph - N/A   Clear
6:15 PM 55.4 °F - 37.4 °F 51% 30.07 in 10.0 mi Calm Calm - N/A   Clear
6:35 PM 55.4 °F - 37.4 °F 51% 30.07 in 10.0 mi West 4.6 mph - N/A   Clear
6:55 PM 55.4 °F - 37.4 °F 51% 30.07 in 10.0 mi WNW 4.6 mph - N/A   Clear
7:15 PM 55.4 °F - 37.4 °F 51% 30.07 in 10.0 mi Calm Calm - N/A   Clear
7:35 PM 53.6 °F - 39.2 °F 58% 30.06 in 10.0 mi WNW 3.5 mph - N/A   Clear
7:55 PM 48.2 °F - 41.0 °F 76% 30.06 in 10.0 mi Calm Calm - N/A   Clear
8:15 PM 48.2 °F - 41.0 °F 76% 30.06 in 10.0 mi Calm Calm - N/A   Clear
8:35 PM 48.2 °F - 39.2 °F 71% 30.06 in 10.0 mi Calm Calm - N/A   Clear
8:55 PM 46.4 °F - 39.2 °F 76% 30.05 in 10.0 mi Calm Calm - N/A   Clear
9:15 PM 46.4 °F - 41.0 °F 81% 30.05 in 10.0 mi Calm Calm - N/A   Clear
9:35 PM 46.4 °F - 41.0 °F 81% 30.04 in 10.0 mi Calm Calm - N/A   Clear
9:55 PM 46.4 °F 44.3 °F 39.2 °F 76% 30.04 in 10.0 mi East 4.6 mph - N/A   Clear
10:15 PM 48.2 °F - 39.2 °F 71% 30.04 in 10.0 mi ENE 5.8 mph - N/A   Clear
10:35 PM 48.2 °F - 39.2 °F 71% 30.04 in 10.0 mi ENE 5.8 mph - N/A   Clear
10:55 PM 48.2 °F - 39.2 °F 71% 30.04 in 10.0 mi Calm Calm - N/A   Clear
11:15 PM 44.6 °F - 39.2 °F 81% 30.04 in 10.0 mi Calm Calm - N/A   Clear
11:35 PM 44.6 °F - 39.2 °F 81% 30.03 in 10.0 mi Calm Calm - N/A   Clear
11:55 PM 44.6 °F - 39.2 °F 81% 30.02 in 10.0 mi Calm Calm - N/A   Partly Cloudy